TimeMST,TemperatureF,Dew PointF,Humidity,Sea Level PressureIn,VisibilityMPH,Wind Direction,Wind SpeedMPH,Gust SpeedMPH,PrecipitationIn,Events,Conditions,WindDirDegrees,DateUTC
12:15 AM,32.0,30.2,93,30.31,10.0,Calm,Calm,-,N/A,,Clear,0,2013-01-12 07:15:00
12:35 AM,32.0,30.2,93,30.31,10.0,Calm,Calm,-,N/A,,Clear,0,2013-01-12 07:35:00
12:55 AM,30.2,30.2,100,30.32,10.0,Calm,Calm,-,N/A,,Clear,0,2013-01-12 07:55:00
1:15 AM,30.2,30.2,100,30.32,7.0,Calm,Calm,-,N/A,,Clear,0,2013-01-12 08:15:00
1:35 AM,30.2,30.2,100,30.32,10.0,SE,3.5,-,N/A,,Clear,140,2013-01-12 08:35:00
1:55 AM,30.2,30.2,100,30.32,10.0,SE,3.5,-,N/A,,Clear,130,2013-01-12 08:55:00
2:15 AM,30.2,30.2,100,30.32,10.0,SSE,3.5,-,N/A,,Clear,150,2013-01-12 09:15:00
2:35 AM,30.2,30.2,100,30.31,10.0,SE,3.5,-,N/A,,Clear,130,2013-01-12 09:35:00
2:55 AM,32.0,30.2,93,30.32,7.0,ESE,3.5,-,N/A,,Clear,120,2013-01-12 09:55:00
3:15 AM,32.0,30.2,93,30.32,10.0,Calm,Calm,-,N/A,,Clear,0,2013-01-12 10:15:00
3:35 AM,30.2,30.2,100,30.31,10.0,Calm,Calm,-,N/A,,Scattered Clouds,0,2013-01-12 10:35:00
3:55 AM,30.2,30.2,100,30.31,10.0,Calm,Calm,-,N/A,,Clear,0,2013-01-12 10:55:00
4:15 AM,30.2,30.2,100,30.31,10.0,Calm,Calm,-,N/A,,Scattered Clouds,0,2013-01-12 11:15:00
4:35 AM,30.2,30.2,100,30.31,10.0,Calm,Calm,-,N/A,,Scattered Clouds,0,2013-01-12 11:35:00
4:55 AM,30.2,30.2,100,30.31,4.0,Calm,Calm,-,N/A,,Mostly Cloudy,0,2013-01-12 11:55:00
5:15 AM,30.2,30.2,100,30.31,10.0,Calm,Calm,-,N/A,,Mostly Cloudy,0,2013-01-12 12:15:00
5:35 AM,30.2,30.2,100,30.30,10.0,Calm,Calm,-,N/A,,Mostly Cloudy,0,2013-01-12 12:35:00
5:55 AM,30.2,30.2,100,30.31,10.0,Calm,Calm,-,N/A,,Mostly Cloudy,0,2013-01-12 12:55:00
6:15 AM,30.2,30.2,100,30.31,10.0,Calm,Calm,-,N/A,,Overcast,0,2013-01-12 13:15:00
6:35 AM,30.2,30.2,100,30.31,10.0,Calm,Calm,-,N/A,,Overcast,0,2013-01-12 13:35:00
6:55 AM,30.2,30.2,100,30.31,10.0,Calm,Calm,-,N/A,,Overcast,0,2013-01-12 13:55:00
7:15 AM,30.2,30.2,100,30.32,10.0,Calm,Calm,-,N/A,,Mostly Cloudy,0,2013-01-12 14:15:00
7:35 AM,30.2,30.2,100,30.32,7.0,Calm,Calm,-,N/A,,Scattered Clouds,0,2013-01-12 14:35:00
7:55 AM,30.2,28.4,93,30.32,10.0,Calm,Calm,-,N/A,,Clear,0,2013-01-12 14:55:00
8:15 AM,28.4,28.4,100,30.32,10.0,Calm,Calm,-,N/A,,Clear,0,2013-01-12 15:15:00
8:35 AM,28.4,28.4,100,30.33,10.0,Calm,Calm,-,N/A,,Clear,0,2013-01-12 15:35:00
8:55 AM,30.2,28.4,93,30.34,10.0,Calm,Calm,-,N/A,,Clear,0,2013-01-12 15:55:00
9:15 AM,28.4,28.4,100,30.34,10.0,Calm,Calm,-,N/A,,Clear,0,2013-01-12 16:15:00
9:35 AM,28.4,28.4,100,30.34,10.0,Calm,Calm,-,N/A,,Clear,0,2013-01-12 16:35:00
9:55 AM,30.2,30.2,100,30.35,10.0,Calm,Calm,-,N/A,,Clear,0,2013-01-12 16:55:00
10:15 AM,30.2,30.2,100,30.35,10.0,SSE,3.5,-,N/A,,Clear,160,2013-01-12 17:15:00
10:35 AM,32.0,30.2,93,30.35,10.0,Calm,Calm,-,N/A,,Clear,0,2013-01-12 17:35:00
10:55 AM,32.0,32.0,100,30.35,10.0,Calm,Calm,-,N/A,,Clear,0,2013-01-12 17:55:00
11:15 AM,32.0,32.0,100,30.35,10.0,Calm,Calm,-,N/A,,Scattered Clouds,0,2013-01-12 18:15:00
11:35 AM,32.0,32.0,100,30.36,10.0,Calm,Calm,-,N/A,,Clear,0,2013-01-12 18:35:00
11:55 AM,33.8,32.0,93,30.35,10.0,Calm,Calm,-,N/A,,Clear,0,2013-01-12 18:55:00
12:15 PM,33.8,32.0,93,30.35,10.0,Calm,Calm,-,N/A,,Clear,0,2013-01-12 19:15:00
12:35 PM,33.8,32.0,93,30.34,10.0,Calm,Calm,-,N/A,,Clear,0,2013-01-12 19:35:00
12:55 PM,35.6,32.0,87,30.34,10.0,Calm,Calm,-,N/A,,Clear,0,2013-01-12 19:55:00
1:15 PM,37.4,32.0,81,30.34,10.0,Calm,Calm,-,N/A,,Scattered Clouds,0,2013-01-12 20:15:00
1:35 PM,39.2,32.0,75,30.34,10.0,Calm,Calm,-,N/A,,Clear,0,2013-01-12 20:35:00
1:55 PM,39.2,32.0,75,30.33,10.0,WSW,3.5,-,N/A,,Scattered Clouds,250,2013-01-12 20:55:00
2:15 PM,41.0,32.0,70,30.33,10.0,Calm,Calm,-,N/A,,Clear,0,2013-01-12 21:15:00
2:35 PM,41.0,32.0,70,30.33,10.0,Calm,Calm,-,N/A,,Clear,0,2013-01-12 21:35:00
2:55 PM,42.8,32.0,66,30.33,10.0,Calm,Calm,-,N/A,,Clear,0,2013-01-12 21:55:00
3:15 PM,44.6,32.0,61,30.34,10.0,WNW,4.6,-,N/A,,Clear,300,2013-01-12 22:15:00
3:35 PM,44.6,32.0,61,30.34,10.0,NW,4.6,-,N/A,,Clear,310,2013-01-12 22:35:00
3:55 PM,44.6,32.0,61,30.34,10.0,West,5.8,-,N/A,,Clear,280,2013-01-12 22:55:00
4:15 PM,44.6,32.0,61,30.34,10.0,West,4.6,-,N/A,,Clear,270,2013-01-12 23:15:00
4:35 PM,44.6,32.0,61,30.34,10.0,West,5.8,-,N/A,,Clear,280,2013-01-12 23:35:00
4:55 PM,42.8,30.2,61,30.34,10.0,West,3.5,-,N/A,,Clear,260,2013-01-12 23:55:00
5:15 PM,42.8,30.2,61,30.34,10.0,Calm,Calm,-,N/A,,Clear,0,2013-01-13 00:15:00
5:35 PM,37.4,32.0,81,30.34,10.0,South,3.5,-,N/A,,Clear,190,2013-01-13 00:35:00
6:15 PM,35.6,32.0,87,30.35,10.0,Calm,Calm,-,N/A,,Clear,0,2013-01-13 01:15:00
6:35 PM,33.8,32.0,93,30.35,10.0,ESE,3.5,-,N/A,,Clear,110,2013-01-13 01:35:00
6:55 PM,33.8,32.0,93,30.35,10.0,East,3.5,-,N/A,,Clear,100,2013-01-13 01:55:00
7:15 PM,33.8,32.0,93,30.36,10.0,Calm,Calm,-,N/A,,Clear,0,2013-01-13 02:15:00
7:35 PM,32.0,30.2,93,30.36,10.0,SSE,3.5,-,N/A,,Clear,160,2013-01-13 02:35:00
7:55 PM,32.0,32.0,100,30.35,10.0,South,4.6,-,N/A,,Clear,180,2013-01-13 02:55:00
8:15 PM,32.0,30.2,93,30.37,10.0,Calm,Calm,-,N/A,,Clear,0,2013-01-13 03:15:00
8:35 PM,32.0,30.2,93,30.37,10.0,Calm,Calm,-,N/A,,Clear,0,2013-01-13 03:35:00
8:55 PM,32.0,30.2,93,30.37,10.0,Calm,Calm,-,N/A,,Clear,0,2013-01-13 03:55:00
9:15 PM,30.2,30.2,100,30.37,7.0,SSE,4.6,-,N/A,,Clear,160,2013-01-13 04:15:00
9:35 PM,32.0,30.2,93,30.38,10.0,SSW,3.5,-,N/A,,Clear,200,2013-01-13 04:35:00
9:55 PM,32.0,30.2,93,30.38,10.0,Calm,Calm,-,N/A,,Clear,0,2013-01-13 04:55:00
10:15 PM,30.2,30.2,100,30.39,7.0,Calm,Calm,-,N/A,,Clear,0,2013-01-13 05:15:00
10:35 PM,30.2,30.2,100,30.39,5.0,Calm,Calm,-,N/A,,Clear,0,2013-01-13 05:35:00
10:55 PM,30.2,30.2,100,30.39,7.0,Calm,Calm,-,N/A,,Clear,0,2013-01-13 05:55:00
11:15 PM,30.2,30.2,100,30.39,10.0,SSE,3.5,-,N/A,,Clear,150,2013-01-13 06:15:00
11:35 PM,30.2,30.2,100,30.40,7.0,Calm,Calm,-,N/A,,Clear,0,2013-01-13 06:35:00
11:55 PM,30.2,30.2,100,30.40,5.0,Calm,Calm,-,N/A,,Clear,0,2013-01-13 06:55:00